sat.trackr.live / text

‹ back to catalog

STARLINK-30999

NORAD 58551 · 2023-192W

PAYLOAD ACTIVE UNKNOWN

§ Identity

Operator
Country
US
Launch date
2023-12-08
Launch site
AFWTR
Launch vehicle
Mass (kg)
RCS (m²)

Purposes: comms

External: N2YO · Heavens-Above · Gunter

§ Orbital elements

Epoch: 2026-09-20T14:42:25.372224Z

Period
93.85 min
Inclination
53.1608°
Eccentricity
0.0001310
Mean motion
15.34400785 rev/d
Perigee alt
461.8 km
Apogee alt
463.6 km
Semi-major
6,840.8 km
B*
-8.8529e-5
RAAN
224.8255°
Arg perigee
84.0511°
Mean anomaly
276.0641°
Rev number
15,600

§ Raw data

STARLINK-309991 58551U 23192W   26263.61279366 -.00003366  00000+0 -88529-4 0  99952 58551  53.1608 224.8255 0001310  84.0511 276.0641 15.34400785156006

JSON: /api/v1/satellites/58551 · /tle

For live sub-satellite position, see the globe view (requires WebGL).

§ Visibility from observer

Set your observer location to see the next 7 days of passes ≥ 10°. The values pass through the URL so the page stays shareable.

No JS? Fill the form by hand. The geolocation button needs JavaScript.